[[{"header":{"parameterUnit":"m.s-1","parameterCategory":1,"la1":30.2991,"la2":30.254,"lo1":-89.0895,"lo2":-89.0444,"dx":0.0017,"dy":0.0017,"nx":28,"ny":28,"refTime":"2022-11-05T21:00:00:Z","depth":0,"parameterNumber":2,"parameterNumberName":"U-component_of_WINDS"},"data":[0,0,0,0,0,0,0,0,0,0,0,0,0,0,0,0,0,0,0,0,0,0,0,0,0,0,0,0,0,0,0,0,0,0,0,0,0,0,0,0,0,0,0,0,0,0,0,0,0,0,0,0,0,0,0,0,0,0,-0.6636,-0.6636,0,-0.6621,-0.6621,-0.6621,-0.6609,-0.6609,-0.6609,-0.6609,-0.6595,-0.6595,-0.6594,0,0,0,0,0,0,0,0,0,0,0,0,0,-0.6658,-0.6658,-0.6636,-0.6636,-0.6636,-0.6621,-0.6621,-0.6621,-0.6609,-0.6609,-0.6609,-0.6609,-0.6595,-0.6595,-0.6594,0,0,0,0,0,0,0,0,0,0,0,0,0,-0.6646,-0.6657,-0.6636,-0.6629,-0.6628,-0.6621,-0.6621,-0.6621,-0.6609,-0.6609,-0.6609,-0.6609,-0.6595,-0.6595,-0.6594,-0.6595,0,0,-0.6593,-0.6593,0,0,0,0,0,0,0,0,-0.6647,-0.6645,-0.663,-0.6629,-0.6628,-0.6617,-0.6623,-0.6612,-0.661,-0.6616,-0.6609,-0.6609,-0.6603,-0.6602,-0.6599,-0.6594,-0.6594,-0.6593,-0.6593,-0.6593,-0.6592,0,0,0,0,0,0,0,-0.6648,-0.6646,-0.663,-0.663,-0.6629,-0.6626,-0.6625,-0.6621,-0.6611,-0.6616,-0.6615,-0.6613,-0.6602,-0.6599,-0.6599,-0.6593,-0.6593,-0.6593,-0.6592,-0.6592,-0.6588,-0.6589,0,0,0,0,0,0,-0.665,-0.6647,-0.6631,-0.663,-0.6637,-0.6626,-0.6624,-0.6621,-0.6611,-0.6609,-0.6613,-0.6613,-0.66,-0.6599,-0.6598,-0.6598,-0.6593,-0.6592,-0.6592,-0.6588,-0.6588,-0.6589,0,0,0,0,0,0,-0.665,-0.6648,-0.6632,-0.6638,-0.6636,-0.6626,-0.6622,-0.6621,-0.6618,-0.6609,-0.6607,-0.6613,-0.66,-0.6599,-0.6596,-0.6597,-0.6592,-0.6592,-0.6588,-0.6588,-0.6589,-0.6598,0,0,0,0,0,0,-0.6651,-0.6648,-0.6648,-0.6638,-0.6635,-0.6629,-0.6622,-0.662,-0.6617,-0.6616,-0.6607,-0.6606,-0.66,-0.6596,-0.6595,-0.6597,-0.6591,-0.6588,-0.6588,-0.6588,-0.6598,-0.6599,-0.66,0,0,0,0,0,-0.6651,-0.6652,-0.6648,-0.6646,-0.6635,-0.6629,-0.6628,-0.662,-0.6617,-0.6617,-0.6611,-0.6606,-0.6597,-0.6596,-0.6595,-0.6596,-0.6588,-0.6588,-0.6588,-0.6597,-0.6598,-0.66,0,0,0,0,0,0,-0.6663,-0.665,-0.6646,-0.6643,-0.6637,-0.6627,-0.6627,-0.6622,-0.6617,-0.6616,-0.6608,-0.6606,-0.6604,-0.66,-0.6599,-0.6596,-0.6592,-0.6592,-0.6599,-0.66,-0.6601,-0.6602,-0.6591,0,0,0,0,0,-0.6665,-0.6661,-0.665,-0.6649,-0.6646,-0.6637,-0.6634,-0.6629,-0.6622,-0.662,-0.6614,-0.6608,-0.6604,-0.6602,-0.6598,-0.6597,-0.6595,-0.6597,-0.6598,-0.6599,-0.6599,-0.6599,-0.66,-0.659,-0.659,-0.659,0,0,-0.6669,-0.6662,-0.666,-0.6651,-0.6645,-0.6642,-0.6635,-0.6631,-0.6629,-0.662,-0.6616,-0.6612,-0.6605,-0.6603,-0.6602,-0.66,-0.6602,-0.6599,-0.66,-0.66,-0.6599,-0.66,-0.6601,-0.659,-0.659,-0.659,0,0,-0.6676,-0.6669,-0.6667,-0.6662,-0.6654,-0.6648,-0.6648,-0.6638,-0.6635,-0.6631,-0.6624,-0.6621,-0.6615,-0.661,-0.6607,-0.6612,-0.6607,-0.661,-0.6616,-0.6615,-0.6616,-0.6617,-0.6619,-0.662,-0.6611,-0.6611,-0.6611,0,-0.6682,-0.6676,-0.6667,-0.6664,-0.666,-0.6651,-0.665,-0.6645,-0.6636,-0.6634,-0.6632,-0.6623,-0.6618,-0.6615,-0.6616,-0.6614,-0.6613,-0.6612,-0.6617,-0.6617,-0.6618,-0.662,-0.662,-0.6611,-0.6611,-0.6611,-0.6611,0,-0.6685,-0.6681,-0.668,-0.6671,-0.6668,-0.6665,-0.6656,-0.6654,-0.6649,-0.6643,-0.664,-0.6634,-0.6628,-0.6627,-0.6622,-0.6623,-0.6622,-0.6618,-0.6614,-0.6619,-0.6621,-0.6622,-0.6612,-0.6612,-0.6612,-0.6611,0,0,-0.6699,-0.6684,-0.6684,-0.668,-0.6671,-0.6667,-0.6665,-0.6659,-0.6657,-0.6651,-0.6649,-0.6643,-0.664,-0.6636,-0.6631,-0.663,-0.6635,-0.6626,-0.6626,-0.6629,-0.6636,-0.664,-0.6641,-0.6631,-0.6632,-0.6632,-0.6637,0,-0.6704,-0.6698,-0.669,-0.6687,-0.6683,-0.6674,-0.6672,-0.6666,-0.6661,-0.6657,-0.6652,-0.6648,-0.6643,-0.6641,-0.664,-0.6634,-0.6636,-0.6634,-0.663,-0.663,-0.6633,-0.6641,-0.6645,-0.665,-0.6637,-0.6638,-0.6638,0,-0.6709,-0.6703,-0.67,-0.669,-0.6688,-0.6686,-0.668,-0.6677,-0.667,-0.6666,-0.6662,-0.6656,-0.6654,-0.6649,-0.6646,-0.6644,-0.6642,-0.6639,-0.6639,-0.6639,-0.6635,-0.6642,-0.6652,-0.6653,-0.6638,-0.6638,-0.6638,0,-0.672,-0.6711,-0.6708,-0.6704,-0.6693,-0.6692,-0.6688,-0.6681,-0.6677,-0.6672,-0.667,-0.6665,-0.6662,-0.6659,-0.6652,-0.6649,-0.6649,-0.6644,-0.6647,-0.6647,-0.6647,-0.6648,-0.6658,-0.6645,-0.6645,-0.6645,-0.6645,0,-0.6727,-0.6725,-0.6712,-0.671,-0.6709,-0.6699,-0.6698,-0.6693,-0.6686,-0.6684,-0.6676,-0.6674,-0.6665,-0.6662,-0.6656,-0.6654,-0.6653,-0.665,-0.6649,-0.6651,-0.6652,-0.665,-0.665,-0.6645,-0.6645,-0.6645,-0.6645,0,-0.6739,-0.673,-0.6726,-0.6715,-0.6713,-0.6712,-0.6703,-0.6701,-0.6695,-0.6692,-0.6691,-0.6682,-0.6678,-0.667,-0.6664,-0.6661,-0.666,-0.6658,-0.6662,-0.6662,-0.6665,-0.6665,-0.6675,-0.6676,-0.6662,-0.6662,-0.6662,0,-0.6744,-0.6742,-0.6731,-0.6729,-0.6724,-0.672,-0.6717,-0.6708,-0.6705,-0.6697,-0.6696,-0.6691,-0.6687,-0.6681,-0.6674,-0.667,-0.6667,-0.6671,-0.6667,-0.6669,-0.6668,-0.6668,-0.6668,-0.6672,-0.6672,-0.6673,-0.6673,0,-0.6754,-0.675,-0.6745,-0.6739,-0.6735,-0.6729,-0.6724,-0.6722,-0.6712,-0.6709,-0.6704,-0.6701,-0.6695,-0.669,-0.6685,-0.668,-0.6675,-0.6674,-0.6674,-0.6677,-0.668,-0.6679,-0.6666,-0.6674,-0.6674,-0.6674,-0.6674,-0.6674,-0.6763,-0.6762,-0.6754,-0.6749,-0.6743,-0.6738,-0.6736,-0.6729,-0.6725,-0.6719,-0.6714,-0.671,-0.6703,-0.6695,-0.6691,-0.6688,-0.6686,-0.6686,-0.6686,-0.6687,-0.6688,-0.668,-0.6687,-0.6687,-0.6687,-0.6687,-0.6687,0,-0.6774,-0.6768,-0.6763,-0.6755,-0.6751,-0.6746,-0.6739,-0.6737,-0.6733,-0.6727,-0.6723,-0.6718,-0.6713,-0.6706,-0.6701,-0.67,-0.6698,-0.6699,-0.67,-0.6699,-0.669,-0.6691,-0.6701,-0.6701,-0.6701,-0.6701,-0.6701,-0.6701,-0.6779,-0.6776,-0.6771,-0.6765,-0.6759,-0.6755,-0.6751,-0.6747,-0.6742,-0.6736,-0.6732,-0.6727,-0.6721,-0.6716,-0.6712,-0.671,-0.6708,-0.6711,-0.6708,-0.6701,-0.6699,-0.6698,-0.6698,-0.6711,-0.6711,-0.6717,-0.6717,-0.6717]},{"header":{"parameterUnit":"m.s-1","parameterCategory":1,"la1":30.2991,"la2":30.254,"lo1":-89.0895,"lo2":-89.0444,"dx":0.0017,"dy":0.0017,"nx":28,"ny":28,"refTime":"2022-11-05T21:00:00:Z","depth":0,"parameterNumber":3,"parameterNumberName":"V-component_of_WINDS"},"data":[0,0,0,0,0,0,0,0,0,0,0,0,0,0,0,0,0,0,0,0,0,0,0,0,0,0,0,0,0,0,0,0,0,0,0,0,0,0,0,0,0,0,0,0,0,0,0,0,0,0,0,0,0,0,0,0,0,0,5.1005,5.1004,0,5.0981,5.0981,5.0981,5.0888,5.0886,5.0884,5.0882,5.0859,5.0861,5.0862,0,0,0,0,0,0,0,0,0,0,0,0,0,5.0971,5.0972,5.1005,5.1004,5.1004,5.0981,5.0981,5.0981,5.0889,5.0886,5.0883,5.0881,5.0859,5.0861,5.0862,0,0,0,0,0,0,0,0,0,0,0,0,0,5.0971,5.0973,5.1005,5.0955,5.0951,5.0981,5.0981,5.0981,5.0889,5.0886,5.0883,5.088,5.0858,5.086,5.0863,5.094,0,0,5.0869,5.087,0,0,0,0,0,0,0,0,5.0971,5.0972,5.0963,5.0959,5.0954,5.0934,5.0961,5.0967,5.089,5.0913,5.0882,5.0878,5.0887,5.0887,5.0889,5.0938,5.0937,5.0869,5.087,5.0871,5.0872,0,0,0,0,0,0,0,5.0971,5.0973,5.0995,5.0963,5.0957,5.0935,5.0931,5.0962,5.0918,5.091,5.0904,5.0902,5.0884,5.0888,5.0888,5.0937,5.0869,5.0871,5.0872,5.0873,5.105,5.1054,0,0,0,0,0,0,5.0978,5.0973,5.0996,5.0995,5.0954,5.0938,5.0934,5.0944,5.0917,5.091,5.0905,5.0898,5.0885,5.0886,5.0887,5.0977,5.0871,5.0873,5.0874,5.1047,5.1051,5.1055,0,0,0,0,0,0,5.0977,5.0981,5.0997,5.0982,5.0982,5.0942,5.0954,5.0945,5.0948,5.0913,5.0905,5.0916,5.0883,5.0884,5.0927,5.0975,5.0874,5.0876,5.1043,5.1048,5.1053,5.1157,0,0,0,0,0,0,5.0977,5.0981,5.1009,5.0983,5.0984,5.1038,5.0957,5.0947,5.0952,5.0943,5.0922,5.0915,5.0881,5.0925,5.093,5.0976,5.0878,5.1039,5.1045,5.1051,5.1149,5.1165,5.1179,0,0,0,0,0,5.0976,5.1039,5.1011,5.1015,5.1018,5.1041,5.1041,5.0999,5.0956,5.0985,5.0963,5.0916,5.0969,5.093,5.0935,5.0982,5.1035,5.1043,5.1051,5.1142,5.1162,5.1178,0,0,0,0,0,0,5.1072,5.1035,5.1003,5.106,5.1054,5.1025,5.106,5.102,5.1027,5.1018,5.0966,5.0962,5.1014,5.1002,5.096,5.1056,5.0994,5.1003,5.1062,5.108,5.1095,5.1097,5.0879,0,0,0,0,0,5.11,5.1121,5.1087,5.114,5.1139,5.11,5.1108,5.1077,5.1069,5.1066,5.1046,5.1041,5.1056,5.1067,5.1079,5.1147,5.1142,5.1182,5.1196,5.1209,5.1218,5.1254,5.1272,5.1081,5.1081,5.108,0,0,5.1157,5.114,5.1156,5.1159,5.1151,5.1175,5.1099,5.1126,5.1144,5.107,5.111,5.1096,5.1087,5.1143,5.1167,5.1135,5.1269,5.1219,5.1229,5.1231,5.1264,5.1282,5.1299,5.1086,5.1085,5.1084,0,0,5.1275,5.1263,5.1307,5.13,5.1289,5.1263,5.1273,5.125,5.1238,5.1278,5.1223,5.1244,5.127,5.1267,5.1268,5.1386,5.1344,5.1391,5.1469,5.1505,5.152,5.1533,5.1577,5.1594,5.14,5.14,5.14,0,5.1348,5.1381,5.1334,5.1366,5.137,5.1304,5.135,5.1345,5.1339,5.1344,5.1308,5.1341,5.133,5.1386,5.1415,5.1417,5.1429,5.1394,5.1522,5.1535,5.1546,5.1587,5.1604,5.1406,5.1405,5.1405,5.1404,0,5.1472,5.1496,5.1533,5.1529,5.1537,5.1575,5.1536,5.1549,5.1518,5.1496,5.1538,5.1522,5.1531,5.1541,5.151,5.1593,5.1574,5.1531,5.1468,5.1571,5.1609,5.1624,5.1415,5.1412,5.1411,5.1409,0,0,5.1649,5.162,5.1634,5.1632,5.1615,5.1634,5.167,5.1678,5.1692,5.1689,5.172,5.1745,5.1705,5.1707,5.1675,5.1707,5.1804,5.1659,5.1659,5.1688,5.1896,5.193,5.1949,5.1775,5.1778,5.178,5.1898,0,5.1763,5.1822,5.1782,5.1849,5.1872,5.181,5.1842,5.1836,5.1817,5.1834,5.1812,5.1832,5.1777,5.1778,5.1807,5.1786,5.1845,5.1776,5.1804,5.1806,5.181,5.1969,5.2004,5.2116,5.1912,5.1914,5.1916,0,5.1903,5.1908,5.1977,5.1957,5.1965,5.1994,5.2,5.2016,5.2009,5.1992,5.1996,5.1956,5.1991,5.1928,5.1977,5.1931,5.194,5.1932,5.1935,5.1938,5.1868,5.1977,5.215,5.2168,5.1939,5.1937,5.1935,0,5.2028,5.2051,5.2096,5.2096,5.2074,5.2096,5.2088,5.2077,5.2085,5.209,5.2095,5.2104,5.2109,5.2118,5.2082,5.2039,5.2136,5.207,5.2125,5.2127,5.215,5.2149,5.2329,5.2153,5.2153,5.2152,5.2152,0,5.2159,5.2205,5.2152,5.218,5.2229,5.2183,5.2234,5.2219,5.221,5.2235,5.2182,5.2206,5.2156,5.2176,5.2148,5.2194,5.2197,5.2186,5.2178,5.2192,5.2193,5.2198,5.219,5.2157,5.2156,5.2155,5.2154,0,5.2307,5.2274,5.2319,5.2295,5.2289,5.2327,5.2307,5.2332,5.2309,5.2342,5.2347,5.2312,5.2332,5.2297,5.2313,5.2295,5.2359,5.2339,5.2362,5.2357,5.2415,5.2411,5.2605,5.2629,5.2437,5.2439,5.244,0,5.2394,5.2428,5.2407,5.242,5.2415,5.2436,5.2445,5.2401,5.2412,5.2407,5.2433,5.2449,5.246,5.2497,5.2473,5.2486,5.2466,5.2533,5.2468,5.2481,5.247,5.2469,5.2473,5.2548,5.255,5.2552,5.2553,0,5.2553,5.2535,5.2549,5.2559,5.257,5.2575,5.2576,5.259,5.2543,5.2559,5.258,5.2588,5.2605,5.2623,5.263,5.2622,5.2581,5.2574,5.2588,5.2603,5.2616,5.2612,5.2401,5.257,5.2568,5.2567,5.2566,5.2566,5.2674,5.2702,5.2693,5.2711,5.2707,5.271,5.2733,5.2714,5.273,5.2741,5.2714,5.2742,5.2734,5.274,5.2737,5.2758,5.2729,5.2748,5.2754,5.276,5.277,5.2611,5.2759,5.2759,5.2758,5.2758,5.2757,0,5.2832,5.2823,5.284,5.2844,5.2859,5.2818,5.2818,5.2833,5.2858,5.2855,5.2867,5.2892,5.2909,5.2887,5.29,5.2922,5.2904,5.2927,5.2926,5.2926,5.2794,5.2782,5.2942,5.2942,5.2942,5.2942,5.2942,5.2942,5.2916,5.2962,5.2943,5.2987,5.2978,5.3005,5.3008,5.3011,5.3008,5.3038,5.3052,5.3038,5.3028,5.304,5.3055,5.3048,5.3056,5.3087,5.3074,5.2952,5.2934,5.2917,5.2905,5.3089,5.3089,5.3203,5.3204,5.3205]}]]